Time,TemperatureF,DewpointF,PressureIn,WindDirection,WindDirectionDegrees,WindSpeedMPH,WindSpeedGustMPH,Humidity,HourlyPrecipIn,Conditions,Clouds,dailyrainin,SolarRadiationWatts/m^2,SoftwareType,DateUTC
2013-03-29 08:15:00,41.0,38.6,30.19,WSW,252,0.0,2.0,91,0.00,,,0.00,246,Wunderground v.1.15,2013-03-29 15:15:00,
2013-03-29 08:20:00,41.8,39.1,30.19,WSW,252,0.0,2.0,90,0.00,,,0.00,163,Wunderground v.1.15,2013-03-29 15:20:00,
2013-03-29 08:25:00,41.9,38.6,30.19,WSW,252,0.0,2.0,88,0.00,,,0.00,169,Wunderground v.1.15,2013-03-29 15:25:00,
2013-03-29 08:35:00,42.7,39.1,30.19,WSW,252,0.0,2.0,87,0.00,,,0.00,130,Wunderground v.1.15,2013-03-29 15:35:00,
2013-03-29 08:45:00,42.2,38.9,30.20,ENE,60,1.0,2.0,88,0.00,,,0.00,153,Wunderground v.1.15,2013-03-29 15:45:00,
2013-03-29 08:50:00,42.3,39.0,30.20,ENE,59,1.0,2.0,88,0.00,,,0.00,109,Wunderground v.1.15,2013-03-29 15:50:00,
2013-03-29 08:55:00,42.3,38.7,30.20,ENE,60,1.0,1.0,87,0.00,,,0.00,104,Wunderground v.1.15,2013-03-29 15:55:00,
2013-03-29 09:00:00,42.7,39.4,30.19,ENE,60,1.0,2.0,88,0.00,,,0.00,105,Wunderground v.1.15,2013-03-29 16:00:00,
2013-03-29 09:10:00,43.8,39.9,30.19,ENE,60,1.0,4.0,86,0.00,,,0.00,186,Wunderground v.1.15,2013-03-29 16:10:00,
2013-03-29 09:15:00,43.9,39.7,30.20,ENE,60,2.0,4.0,85,0.00,,,0.00,197,Wunderground v.1.15,2013-03-29 16:15:00,
2013-03-29 09:20:00,44.6,40.4,30.20,ENE,60,2.0,4.0,85,0.00,,,0.00,202,Wunderground v.1.15,2013-03-29 16:20:00,
2013-03-29 09:25:00,44.3,39.8,30.20,ENE,62,1.0,4.0,84,0.00,,,0.00,200,Wunderground v.1.15,2013-03-29 16:25:00,
2013-03-29 09:30:00,45.0,40.5,30.20,ENE,62,1.0,1.0,84,0.00,,,0.00,225,Wunderground v.1.15,2013-03-29 16:30:00,
2013-03-29 09:40:00,45.3,40.4,30.20,ENE,59,1.0,1.0,83,0.00,,,0.00,178,Wunderground v.1.15,2013-03-29 16:40:00,
2013-03-29 09:45:00,45.8,40.3,30.20,ENE,59,1.0,5.0,81,0.00,,,0.00,220,Wunderground v.1.15,2013-03-29 16:45:00,
2013-03-29 09:50:00,46.0,40.8,30.20,ENE,59,1.0,1.0,82,0.00,,,0.00,229,Wunderground v.1.15,2013-03-29 16:50:00,
2013-03-29 09:55:00,46.4,40.6,30.20,North,355,1.0,2.0,80,0.00,,,0.00,243,Wunderground v.1.15,2013-03-29 16:55:00,
2013-03-29 10:00:00,47.0,41.5,30.20,North,355,1.0,1.0,81,0.00,,,0.00,253,Wunderground v.1.15,2013-03-29 17:00:00,
2013-03-29 10:05:00,47.4,41.2,30.20,North,355,0.0,5.0,79,0.00,,,0.00,258,Wunderground v.1.15,2013-03-29 17:05:00,
2013-03-29 10:10:00,47.8,41.9,30.20,North,355,0.0,3.0,80,0.00,,,0.00,272,Wunderground v.1.15,2013-03-29 17:10:00,
2013-03-29 10:15:00,48.3,41.8,30.20,North,5,0.0,3.0,78,0.00,,,0.00,290,Wunderground v.1.15,2013-03-29 17:15:00,
2013-03-29 10:20:00,48.5,42.0,30.20,North,5,0.0,3.0,78,0.00,,,0.00,304,Wunderground v.1.15,2013-03-29 17:20:00,
2013-03-29 10:25:00,48.9,42.0,30.20,North,5,1.0,3.0,77,0.00,,,0.00,315,Wunderground v.1.15,2013-03-29 17:25:00,
2013-03-29 10:30:00,49.2,42.0,30.20,North,5,0.0,3.0,76,0.00,,,0.00,295,Wunderground v.1.15,2013-03-29 17:30:00,
2013-03-29 10:35:00,49.7,42.1,30.20,North,5,0.0,3.0,75,0.00,,,0.00,258,Wunderground v.1.15,2013-03-29 17:35:00,
2013-03-29 10:45:00,50.7,43.1,30.20,North,350,0.0,3.0,75,0.00,,,0.00,359,Wunderground v.1.15,2013-03-29 17:45:00,
2013-03-29 10:50:00,51.3,43.3,30.20,NNW,348,1.0,3.0,74,0.00,,,0.00,552,Wunderground v.1.15,2013-03-29 17:50:00,
2013-03-29 10:55:00,52.1,44.1,30.20,North,5,1.0,3.0,74,0.00,,,0.00,642,Wunderground v.1.15,2013-03-29 17:55:00,
2013-03-29 11:00:00,52.0,43.3,30.20,WSW,244,1.0,3.0,72,0.00,,,0.00,612,Wunderground v.1.15,2013-03-29 18:00:00,
2013-03-29 11:05:00,52.8,43.3,30.20,SSW,203,1.0,3.0,70,0.00,,,0.00,538,Wunderground v.1.15,2013-03-29 18:05:00,
2013-03-29 11:15:00,53.4,43.9,30.20,WSW,256,1.0,4.0,70,0.00,,,0.00,689,Wunderground v.1.15,2013-03-29 18:15:00,
2013-03-29 11:20:00,54.1,43.0,30.20,SSE,163,2.0,4.0,66,0.00,,,0.00,701,Wunderground v.1.15,2013-03-29 18:20:00,
2013-03-29 11:25:00,55.0,43.8,30.19,SE,142,2.0,4.0,66,0.00,,,0.00,714,Wunderground v.1.15,2013-03-29 18:25:00,
2013-03-29 11:30:00,55.1,43.5,30.19,South,191,2.0,4.0,65,0.00,,,0.00,731,Wunderground v.1.15,2013-03-29 18:30:00,
2013-03-29 11:35:00,55.0,43.8,30.19,SE,132,3.0,4.0,66,0.00,,,0.00,775,Wunderground v.1.15,2013-03-29 18:35:00,
2013-03-29 11:40:00,56.2,43.8,30.19,SE,132,2.0,6.0,63,0.00,,,0.00,814,Wunderground v.1.15,2013-03-29 18:40:00,
2013-03-29 11:50:00,57.1,43.8,30.19,East,93,2.0,2.0,61,0.00,,,0.00,810,Wunderground v.1.15,2013-03-29 18:50:00,
2013-03-29 11:55:00,57.3,43.5,30.19,SE,142,2.0,3.0,60,0.00,,,0.00,773,Wunderground v.1.15,2013-03-29 18:55:00,
2013-03-29 12:00:00,58.1,43.4,30.19,West,261,1.0,1.0,58,0.00,,,0.00,786,Wunderground v.1.15,2013-03-29 19:00:00,
2013-03-29 12:05:00,58.4,44.6,30.19,SSW,198,1.0,2.0,60,0.00,,,0.00,853,Wunderground v.1.15,2013-03-29 19:05:00,
2013-03-29 12:10:00,58.9,43.7,30.19,ESE,120,1.0,5.0,57,0.00,,,0.00,719,Wunderground v.1.15,2013-03-29 19:10:00,
2013-03-29 12:20:00,58.0,42.8,30.18,SE,130,2.0,2.0,57,0.00,,,0.00,438,Wunderground v.1.15,2013-03-29 19:20:00,
2013-03-29 12:25:00,58.0,42.8,30.18,SSE,148,2.0,5.0,57,0.00,,,0.00,541,Wunderground v.1.15,2013-03-29 19:25:00,
2013-03-29 12:30:00,59.3,43.1,30.18,SE,126,3.0,5.0,55,0.00,,,0.00,663,Wunderground v.1.15,2013-03-29 19:30:00,
2013-03-29 12:35:00,59.3,43.1,30.18,SSW,204,3.0,5.0,55,0.00,,,0.00,895,Wunderground v.1.15,2013-03-29 19:35:00,
2013-03-29 12:40:00,59.3,40.7,30.18,SSE,165,3.0,3.0,50,0.00,,,0.00,881,Wunderground v.1.15,2013-03-29 19:40:00,
2013-03-29 12:50:00,59.5,40.3,30.18,SSE,157,3.0,8.0,49,0.00,,,0.00,786,Wunderground v.1.15,2013-03-29 19:50:00,
2013-03-29 13:00:00,60.7,41.4,30.17,SW,218,2.0,8.0,49,0.00,,,0.00,851,Wunderground v.1.15,2013-03-29 20:00:00,
2013-03-29 13:10:00,59.7,40.5,30.17,WSW,253,2.0,10.0,49,0.00,,,0.00,216,Wunderground v.1.15,2013-03-29 20:10:00,
2013-03-29 13:15:00,60.3,40.0,30.17,SSW,202,1.0,10.0,47,0.00,,,0.00,905,Wunderground v.1.15,2013-03-29 20:15:00,
2013-03-29 13:25:00,60.6,38.6,30.17,South,175,3.0,4.0,44,0.00,,,0.00,1004,Wunderground v.1.15,2013-03-29 20:25:00,
2013-03-29 13:30:00,61.2,40.2,30.17,SSW,199,2.0,10.0,46,0.00,,,0.00,1063,Wunderground v.1.15,2013-03-29 20:30:00,
2013-03-29 13:35:00,60.6,39.7,30.17,SSW,195,3.0,10.0,46,0.00,,,0.00,782,Wunderground v.1.15,2013-03-29 20:35:00,
2013-03-29 13:40:00,60.2,38.2,30.17,South,184,3.0,9.0,44,0.00,,,0.00,782,Wunderground v.1.15,2013-03-29 20:40:00,
2013-03-29 13:45:00,59.7,37.2,30.17,WSW,252,4.0,9.0,43,0.00,,,0.00,504,Wunderground v.1.15,2013-03-29 20:45:00,
2013-03-29 13:55:00,60.5,37.3,30.17,South,175,3.0,9.0,42,0.00,,,0.00,715,Wunderground v.1.15,2013-03-29 20:55:00,
2013-03-29 14:00:00,60.7,37.5,30.16,WSW,240,4.0,9.0,42,0.00,,,0.00,708,Wunderground v.1.15,2013-03-29 21:00:00,
2013-03-29 14:05:00,60.8,37.5,30.16,SSW,193,3.0,9.0,42,0.00,,,0.00,396,Wunderground v.1.15,2013-03-29 21:05:00,
2013-03-29 14:10:00,61.0,37.7,30.16,SSW,200,3.0,10.0,42,0.00,,,0.00,729,Wunderground v.1.15,2013-03-29 21:10:00,
2013-03-29 14:20:00,61.4,36.2,30.16,SW,234,4.0,4.0,39,0.00,,,0.00,793,Wunderground v.1.15,2013-03-29 21:20:00,
2013-03-29 14:30:00,61.4,36.8,30.16,South,170,3.0,10.0,40,0.00,,,0.00,768,Wunderground v.1.15,2013-03-29 21:30:00,
2013-03-29 14:35:00,61.3,38.0,30.16,South,173,4.0,10.0,42,0.00,,,0.00,745,Wunderground v.1.15,2013-03-29 21:35:00,
2013-03-29 14:45:00,62.5,37.8,30.15,SSE,159,4.0,8.0,40,0.00,,,0.00,761,Wunderground v.1.15,2013-03-29 21:45:00,
2013-03-29 14:55:00,61.8,37.2,30.16,SSW,197,4.0,8.0,40,0.00,,,0.00,775,Wunderground v.1.15,2013-03-29 21:55:00,
2013-03-29 15:05:00,61.2,35.4,30.15,SSW,207,3.0,8.0,38,0.00,,,0.00,343,Wunderground v.1.15,2013-03-29 22:05:00,
2013-03-29 15:10:00,61.1,34.6,30.15,South,188,2.0,10.0,37,0.00,,,0.00,269,Wunderground v.1.15,2013-03-29 22:10:00,
2013-03-29 15:15:00,61.1,33.2,30.15,SW,227,3.0,10.0,35,0.00,,,0.00,779,Wunderground v.1.15,2013-03-29 22:15:00,
2013-03-29 15:20:00,62.2,32.7,30.15,South,177,4.0,10.0,33,0.00,,,0.00,795,Wunderground v.1.15,2013-03-29 22:20:00,
2013-03-29 15:30:00,63.1,34.3,30.15,SSE,166,3.0,3.0,34,0.00,,,0.00,715,Wunderground v.1.15,2013-03-29 22:30:00,
2013-03-29 15:35:00,62.8,32.5,30.15,NNW,336,2.0,10.0,32,0.00,,,0.00,195,Wunderground v.1.15,2013-03-29 22:35:00,
2013-03-29 15:45:00,62.5,33.0,30.15,West,265,3.0,9.0,33,0.00,,,0.00,197,Wunderground v.1.15,2013-03-29 22:45:00,
2013-03-29 15:55:00,62.6,34.5,30.14,South,183,3.0,5.0,35,0.00,,,0.00,547,Wunderground v.1.15,2013-03-29 22:55:00,
2013-03-29 16:05:00,62.0,32.5,30.15,SSW,201,5.0,9.0,33,0.00,,,0.00,515,Wunderground v.1.15,2013-03-29 23:05:00,
2013-03-29 16:10:00,62.1,32.6,30.15,SSW,211,4.0,13.0,33,0.00,,,0.00,496,Wunderground v.1.15,2013-03-29 23:10:00,
2013-03-29 16:20:00,62.6,33.8,30.15,SSW,201,4.0,4.0,34,0.00,,,0.00,466,Wunderground v.1.15,2013-03-29 23:20:00,
2013-03-29 16:30:00,62.4,34.4,30.15,South,174,3.0,13.0,35,0.00,,,0.00,445,Wunderground v.1.15,2013-03-29 23:30:00,
2013-03-29 16:35:00,62.2,33.5,30.15,WSW,246,4.0,13.0,34,0.00,,,0.00,436,Wunderground v.1.15,2013-03-29 23:35:00,
2013-03-29 16:40:00,62.5,34.5,30.15,WSW,250,4.0,12.0,35,0.00,,,0.00,420,Wunderground v.1.15,2013-03-29 23:40:00,
2013-03-29 16:50:00,61.9,32.5,30.15,WSW,243,5.0,5.0,33,0.00,,,0.00,394,Wunderground v.1.15,2013-03-29 23:50:00,
2013-03-29 16:55:00,61.8,33.8,30.15,SW,217,5.0,12.0,35,0.00,,,0.00,380,Wunderground v.1.15,2013-03-29 23:55:00,
2013-03-29 17:05:00,62.0,33.3,30.15,WSW,253,4.0,7.0,34,0.00,,,0.00,355,Wunderground v.1.15,2013-03-30 00:05:00,
2013-03-29 17:10:00,62.1,34.1,30.15,West,281,4.0,4.0,35,0.00,,,0.00,251,Wunderground v.1.15,2013-03-30 00:10:00,
2013-03-29 17:15:00,61.9,33.9,30.15,SSE,157,2.0,14.0,35,0.00,,,0.00,70,Wunderground v.1.15,2013-03-30 00:15:00,
2013-03-29 17:20:00,61.6,33.7,30.15,NW,315,2.0,14.0,35,0.00,,,0.00,58,Wunderground v.1.15,2013-03-30 00:20:00,
2013-03-29 17:25:00,61.4,33.5,30.15,SW,215,3.0,14.0,35,0.00,,,0.00,104,Wunderground v.1.15,2013-03-30 00:25:00,
2013-03-29 17:35:00,60.7,33.6,30.15,East,86,4.0,14.0,36,0.00,,,0.00,47,Wunderground v.1.15,2013-03-30 00:35:00,
2013-03-29 17:40:00,60.5,33.4,30.15,SW,236,3.0,12.0,36,0.00,,,0.00,51,Wunderground v.1.15,2013-03-30 00:40:00,
2013-03-29 17:45:00,60.4,33.3,30.15,SW,214,3.0,12.0,36,0.00,,,0.00,56,Wunderground v.1.15,2013-03-30 00:45:00,
2013-03-29 17:50:00,60.4,34.0,30.15,SW,236,2.0,12.0,37,0.00,,,0.00,60,Wunderground v.1.15,2013-03-30 00:50:00,
2013-03-29 17:55:00,60.3,33.2,30.15,SW,222,2.0,12.0,36,0.00,,,0.00,63,Wunderground v.1.15,2013-03-30 00:55:00,
2013-03-29 18:00:00,60.2,33.8,30.15,SSE,161,3.0,3.0,37,0.00,,,0.00,148,Wunderground v.1.15,2013-03-30 01:00:00,
2013-03-29 18:05:00,60.1,33.0,30.15,NW,304,2.0,12.0,36,0.00,,,0.00,39,Wunderground v.1.15,2013-03-30 01:05:00,
2013-03-29 18:15:00,59.5,33.2,30.15,West,275,2.0,13.0,37,0.00,,,0.00,32,Wunderground v.1.15,2013-03-30 01:15:00,
2013-03-29 18:25:00,59.0,32.7,30.15,SSW,204,2.0,3.0,37,0.00,,,0.00,28,Wunderground v.1.15,2013-03-30 01:25:00,
2013-03-29 18:35:00,58.7,31.8,30.15,South,188,1.0,13.0,36,0.00,,,0.00,25,Wunderground v.1.15,2013-03-30 01:35:00,
2013-03-29 18:40:00,58.6,31.7,30.15,South,170,1.0,8.0,36,0.00,,,0.00,21,Wunderground v.1.15,2013-03-30 01:40:00,
2013-03-29 18:45:00,58.4,32.2,30.15,WSW,254,2.0,8.0,37,0.00,,,0.00,19,Wunderground v.1.15,2013-03-30 01:45:00,
2013-03-29 18:50:00,58.2,32.0,30.15,WSW,257,1.0,8.0,37,0.00,,,0.00,16,Wunderground v.1.15,2013-03-30 01:50:00,
2013-03-29 18:55:00,57.9,32.4,30.15,SW,225,1.0,8.0,38,0.00,,,0.00,14,Wunderground v.1.15,2013-03-30 01:55:00,
2013-03-29 19:00:00,57.7,32.2,30.15,WSW,244,1.0,8.0,38,0.00,,,0.00,12,Wunderground v.1.15,2013-03-30 02:00:00,
2013-03-29 19:05:00,57.3,32.5,30.15,WSW,244,0.0,8.0,39,0.00,,,0.00,9,Wunderground v.1.15,2013-03-30 02:05:00,
2013-03-29 19:15:00,56.2,33.4,30.15,WSW,244,0.0,5.0,42,0.00,,,0.00,0,Wunderground v.1.15,2013-03-30 02:15:00,
2013-03-29 19:20:00,55.4,33.3,30.15,WSW,244,0.0,5.0,43,0.00,,,0.00,0,Wunderground v.1.15,2013-03-30 02:20:00,
2013-03-29 19:30:00,54.0,33.7,30.15,WSW,244,0.0,5.0,46,0.00,,,0.00,0,Wunderground v.1.15,2013-03-30 02:30:00,
2013-03-29 19:40:00,52.7,33.5,30.15,WSW,244,0.0,2.0,48,0.00,,,0.00,0,Wunderground v.1.15,2013-03-30 02:40:00,
2013-03-29 19:45:00,52.1,33.5,30.15,WSW,244,0.0,2.0,49,0.00,,,0.00,0,Wunderground v.1.15,2013-03-30 02:45:00,
2013-03-29 19:50:00,51.5,33.5,30.15,WSW,244,0.0,2.0,50,0.00,,,0.00,0,Wunderground v.1.15,2013-03-30 02:50:00,
2013-03-29 19:55:00,51.0,33.5,30.16,WSW,244,0.0,2.0,51,0.00,,,0.00,0,Wunderground v.1.15,2013-03-30 02:55:00,
2013-03-29 20:00:00,50.6,33.1,30.16,WSW,244,0.0,2.0,51,0.00,,,0.00,0,Wunderground v.1.15,2013-03-30 03:00:00,
2013-03-29 20:10:00,49.8,33.8,30.16,WSW,244,0.0,2.0,54,0.00,,,0.00,0,Wunderground v.1.15,2013-03-30 03:10:00,
2013-03-29 20:20:00,49.0,34.0,30.17,WSW,244,0.0,2.0,56,0.00,,,0.00,0,Wunderground v.1.15,2013-03-30 03:20:00,
2013-03-29 20:30:00,48.4,33.9,30.17,WSW,244,0.0,2.0,57,0.00,,,0.00,0,Wunderground v.1.15,2013-03-30 03:30:00,
2013-03-29 20:40:00,47.9,34.3,30.17,WSW,244,0.0,1.0,59,0.00,,,0.00,0,Wunderground v.1.15,2013-03-30 03:40:00,
2013-03-29 20:45:00,47.6,34.0,30.18,WSW,244,0.0,1.0,59,0.00,,,0.00,0,Wunderground v.1.15,2013-03-30 03:45:00,
2013-03-29 20:50:00,47.4,33.8,30.18,WSW,244,0.0,1.0,59,0.00,,,0.00,0,Wunderground v.1.15,2013-03-30 03:50:00,
2013-03-29 20:55:00,47.2,34.0,30.18,WSW,244,0.0,1.0,60,0.00,,,0.00,0,Wunderground v.1.15,2013-03-30 03:55:00,
2013-03-29 21:00:00,47.0,33.8,30.18,WSW,244,0.0,1.0,60,0.00,,,0.00,0,Wunderground v.1.15,2013-03-30 04:00:00,
2013-03-29 21:05:00,46.8,34.0,30.18,WSW,244,0.0,1.0,61,0.00,,,0.00,0,Wunderground v.1.15,2013-03-30 04:05:00,
2013-03-29 21:10:00,46.7,34.0,30.18,WSW,244,0.0,1.0,61,0.00,,,0.00,0,Wunderground v.1.15,2013-03-30 04:10:00,
2013-03-29 21:15:00,46.5,34.2,30.19,WSW,244,0.0,1.0,62,0.00,,,0.00,0,Wunderground v.1.15,2013-03-30 04:15:00,
2013-03-29 21:20:00,46.3,34.0,30.19,WSW,244,0.0,1.0,62,0.00,,,0.00,0,Wunderground v.1.15,2013-03-30 04:20:00,
2013-03-29 21:30:00,45.9,34.0,30.19,WSW,244,0.0,1.0,63,0.00,,,0.00,0,Wunderground v.1.15,2013-03-30 04:30:00,
2013-03-29 21:35:00,45.7,34.2,30.19,WSW,244,0.0,1.0,64,0.00,,,0.00,0,Wunderground v.1.15,2013-03-30 04:35:00,
2013-03-29 21:45:00,45.4,34.3,30.19,WSW,244,0.0,1.0,65,0.00,,,0.00,0,Wunderground v.1.15,2013-03-30 04:45:00,
2013-03-29 21:55:00,45.1,34.4,30.19,WSW,244,0.0,1.0,66,0.00,,,0.00,0,Wunderground v.1.15,2013-03-30 04:55:00,
2013-03-29 22:05:00,44.9,34.2,30.19,WSW,244,0.0,1.0,66,0.00,,,0.00,0,Wunderground v.1.15,2013-03-30 05:05:00,
2013-03-29 22:10:00,44.8,34.1,30.19,WSW,244,0.0,2.0,66,0.00,,,0.00,0,Wunderground v.1.15,2013-03-30 05:10:00,
2013-03-29 22:20:00,44.7,34.0,30.20,WSW,244,0.0,2.0,66,0.00,,,0.00,0,Wunderground v.1.15,2013-03-30 05:20:00,
2013-03-29 22:30:00,44.3,34.0,30.20,WSW,244,0.0,2.0,67,0.00,,,0.00,0,Wunderground v.1.15,2013-03-30 05:30:00,
2013-03-29 22:40:00,44.0,34.1,30.20,WSW,244,0.0,1.0,68,0.00,,,0.00,0,Wunderground v.1.15,2013-03-30 05:40:00,
2013-03-29 22:50:00,43.6,34.1,30.20,WSW,244,0.0,1.0,69,0.00,,,0.00,0,Wunderground v.1.15,2013-03-30 05:50:00,
2013-03-29 22:55:00,43.3,34.2,30.20,WSW,244,0.0,1.0,70,0.00,,,0.00,0,Wunderground v.1.15,2013-03-30 05:55:00,
2013-03-29 23:05:00,42.8,34.0,30.21,WSW,244,0.0,1.0,71,0.00,,,0.00,0,Wunderground v.1.15,2013-03-30 06:05:00,
2013-03-29 23:15:00,42.5,34.1,30.21,WSW,244,0.0,1.0,72,0.00,,,0.00,0,Wunderground v.1.15,2013-03-30 06:15:00,
2013-03-29 23:20:00,42.2,33.8,30.21,WSW,244,0.0,1.0,72,0.00,,,0.00,0,Wunderground v.1.15,2013-03-30 06:20:00,
2013-03-29 23:25:00,42.0,34.0,30.21,WSW,244,0.0,1.0,73,0.00,,,0.00,0,Wunderground v.1.15,2013-03-30 06:25:00,
2013-03-29 23:30:00,41.8,33.8,30.21,WSW,244,0.0,1.0,73,0.00,,,0.00,0,Wunderground v.1.15,2013-03-30 06:30:00,
2013-03-29 23:35:00,41.6,33.6,30.21,WSW,244,0.0,1.0,73,0.00,,,0.00,0,Wunderground v.1.15,2013-03-30 06:35:00,
2013-03-29 23:40:00,41.4,33.7,30.21,WSW,244,0.0,0.0,74,0.00,,,0.00,0,Wunderground v.1.15,2013-03-30 06:40:00,
2013-03-29 23:50:00,41.0,33.7,30.22,WSW,244,0.0,0.0,75,0.00,,,0.00,0,Wunderground v.1.15,2013-03-30 06:50:00,
2013-03-29 23:55:00,40.8,33.5,30.22,WSW,244,0.0,0.0,75,0.00,,,0.00,0,Wunderground v.1.15,2013-03-30 06:55:00,